Wetbulb
65.09 63.98 64.83 67.47 66.78 66.83 69.54 71.67 76.04 75.74 76.21 75.23 75.47 75.01 74.92 73.58 72.67 73.52 72.30 73.05 73.38 71.70
65.62 65.48 65.14 67.54 70.07 67.90 71.32 71.38 73.23 74.35 75.24 75.55 74.92 74.42 74.26 72.15 72.52 73.75 73.63 73.61 73.07 71.77
65.99 66.82 67.02 67.87 67.37 69.02 70.99 72.34 72.09 73.91 75.11 74.34 73.95 73.36 74.00 73.18 74.09 73.65 73.32 72.67 73.09 71.95
63.66 65.56 67.73 68.05 68.21 70.23 72.18 71.14 71.18 72.55 72.95 73.14 72.64 73.38 73.88 74.85 73.96 73.23 73.16 72.93 71.42 71.03
63.11 63.59 65.16 67.91 68.18 69.49 70.32 70.58 70.85 71.88 72.22 72.19 72.27 73.52 73.66 73.63 73.52 72.75 71.96 70.88 70.85 69.60
61.56 61.64 63.16 67.04 68.61 69.02 69.33 69.93 70.82 71.49 71.77 71.42 71.93 73.18 73.76 73.60 72.95 72.72 72.17 71.04 70.28 70.13
60.32 60.92 61.67 66.86 68.68 68.50 69.03 69.46 70.48 71.91 71.85 71.74 72.15 72.94 73.28 73.11 72.23 72.37 71.58 71.18 70.53 70.79
59.83 60.84 61.09 65.70 68.16 67.67 69.18 70.08 71.34 71.67 71.58 71.98 72.25 72.27 72.87 72.28 72.07 71.98 70.56 70.38 69.73 70.26
59.51 59.25 60.06 65.14 67.23 68.13 69.52 71.53 72.10 71.71 71.04 71.81 71.34 55.42 57.89 68.14 71.97 70.74 69.77 68.43 68.58 69.24
57.74 57.47 59.44 64.32 65.92 68.13 71.75 73.25 72.89 72.52 71.44 72.18 72.19 53.24 54.13 57.56 71.33 70.49 69.78 68.63 68.43 67.75
56.59 56.74 58.78 65.03 66.38 70.60 72.29 73.07 72.86 72.75 72.37 72.21 70.11 50.89 51.98 55.15 70.73 69.38 68.97 69.23 68.77 68.23
55.96 56.69 58.64 65.11 68.64 71.35 71.21 71.55 72.26 71.84 71.74 71.38 65.76 49.26 50.53 60.81 69.24 68.01 67.89 67.97 68.32 68.12
54.49 57.31 58.77 65.71 68.14 69.57 68.99 69.46 70.51 70.99 71.80 64.87 66.90 46.71 50.27 60.17 66.48 66.71 66.20 67.59 67.66 51.97
54.79 59.06 63.29 65.81 66.68 66.74 67.78 68.36 68.37 68.29 68.86 68.04 64.67 54.40 48.44 49.24 66.56 65.71 65.64 65.76 65.66 65.69
MSLP
1003.88 1003.38 1002.76 1002.18 1001.54 1001.23 1001.19 1001.25 1001.74 1002.04 1002.51 1002.88 1003.29 1004.31 1004.92 1005.65 1006.37 1006.85 1007.24 1006.89 1006.77 1006.68
1002.92 1002.65 1002.41 1002.10 1001.43 1000.89 1000.97 1000.72 1001.17 1001.59 1001.85 1002.08 1002.60 1003.50 1004.19 1004.93 1005.63 1006.00 1006.24 1006.04 1006.61 1006.74
1001.91 1001.54 1001.56 1001.48 1000.95 1000.44 1000.27 1000.40 1000.41 1000.98 1001.18 1001.63 1002.19 1003.03 1003.55 1004.38 1004.87 1004.84 1005.00 1005.45 1005.99 1006.49
1001.54 1001.19 1000.56 1000.33 999.97 999.57 999.63 999.71 1000.05 1000.47 1000.59 1000.77 1001.43 1002.20 1002.90 1003.17 1003.50 1003.80 1004.35 1004.95 1005.84 1006.14
1001.23 1000.91 1000.56 999.59 999.00 998.85 998.48 999.00 999.13 999.37 999.41 999.79 1000.42 1001.13 1001.85 1002.31 1002.18 1003.07 1004.01 1004.63 1005.24 1005.80
1000.94 1000.41 1000.02 999.15 998.31 998.06 997.66 997.91 998.17 998.19 998.31 998.66 999.16 1000.20 1001.17 1001.15 1001.59 1002.79 1003.52 1004.12 1004.68 1005.03
1000.24 1000.00 999.37 998.39 997.49 997.05 996.85 996.65 996.88 997.19 997.34 997.65 998.34 999.49 1000.15 1000.51 1001.75 1002.50 1003.04 1003.84 1004.28 1004.52
999.50 999.12 998.66 997.47 996.28 995.92 995.74 995.86 995.93 996.24 996.50 997.04 997.81 998.59 999.29 1000.52 1001.53 1002.15 1003.01 1003.79 1003.99 1004.53
998.52 998.16 997.50 996.30 995.33 995.18 995.14 995.20 995.23 995.51 995.86 996.58 997.26 998.73 999.61 1000.44 1001.20 1002.06 1002.94 1003.29 1003.97 1004.34
997.65 997.19 996.19 995.25 994.31 994.06 994.14 994.34 994.56 994.95 995.44 996.51 997.65 999.16 1000.06 1000.65 1001.26 1001.90 1002.51 1003.06 1003.64 1004.06
996.73 996.16 995.02 993.98 993.03 993.12 993.41 993.79 994.11 994.49 995.24 996.56 997.94 999.56 1000.23 1001.02 1001.43 1001.89 1002.28 1002.70 1003.30 1003.89
995.47 994.43 994.12 992.70 991.91 992.31 992.89 993.45 993.90 994.35 995.12 996.59 998.42 999.91 1000.52 1000.77 1001.25 1001.67 1002.05 1002.58 1003.21 1003.92
994.79 993.90 993.35 991.59 991.37 992.19 992.96 993.21 993.61 994.27 995.18 996.45 998.22 1000.22 1000.19 1000.36 1000.76 1001.42 1001.89 1002.57 1003.40 1004.52
992.97 993.11 991.67 991.21 991.81 992.40 992.83 993.13 993.95 994.87 995.92 997.09 997.96 999.97 1000.24 1000.61 1000.54 1000.98 1001.56 1002.23 1003.27 1004.03
Wind_Speed
12 10 11 13 12 12 12 12 11 13 14 17 14 13 12 10 12 14 14 15 12 9
13 13 13 16 13 12 13 11 12 16 16 16 15 15 13 11 14 13 13 12 12 10
15 14 14 13 15 14 12 13 11 15 14 15 14 13 13 14 14 14 10 9 12 10
15 16 18 16 17 16 15 15 16 17 18 18 18 17 16 15 15 14 12 11 13 13
16 17 18 19 19 18 17 17 19 18 18 18 18 17 18 17 14 14 14 14 13 12
16 18 18 21 19 19 18 19 19 18 19 19 18 18 18 15 13 14 15 15 14 13
17 17 16 21 19 19 19 18 19 20 20 19 18 17 16 14 14 15 14 14 13 12
18 18 17 21 18 19 18 19 21 20 19 17 16 13 16 15 15 15 14 13 11 10
18 17 17 21 18 18 20 20 19 19 18 17 12 15 12 15 14 15 15 12 9 10
18 17 14 22 19 20 19 17 17 17 18 18 14 18 15 12 14 14 14 12 11 10
18 15 12 23 19 18 17 17 16 17 18 17 13 18 17 14 14 12 11 12 12 12
15 10 15 21 18 17 16 15 15 17 18 16 14 18 19 16 14 11 12 11 11 12
15 13 18 17 13 14 15 15 13 16 16 16 18 15 18 12 10 12 10 10 10 9
13 22 17 12 11 13 13 14 13 13 12 16 18 13 14 10 12 11 10 9 8 8
Wind_Direction
282 272 270 251 251 251 240 237 232 204 209 207 204 209 202 206 213 211 215 207 219 211
284 273 270 271 264 243 245 241 220 216 209 204 198 198 192 208 205 204 205 199 201 220
298 281 271 260 253 248 242 232 226 213 206 199 189 192 188 205 201 195 188 198 196 205
294 291 288 270 260 245 232 221 214 205 198 190 189 191 192 200 186 186 187 193 193 196
292 299 288 277 266 251 235 222 215 210 196 190 188 188 194 193 175 188 189 187 188 194
288 293 287 276 263 250 236 224 215 209 197 194 188 187 196 184 179 196 190 187 186 189
282 285 282 281 256 243 232 221 212 206 198 192 186 186 184 178 188 190 185 184 186 188
282 284 278 279 249 237 227 218 207 194 192 185 181 180 179 180 187 180 178 183 181 187
278 286 274 283 238 226 217 207 196 189 181 175 180 144 159 174 179 177 176 167 175 174
282 279 274 287 228 217 206 195 190 181 173 171 171 139 142 153 172 176 173 168 179 187
275 267 279 276 217 204 193 186 182 173 168 166 148 140 143 163 163 165 170 179 185 195
277 291 273 260 206 190 182 181 177 169 164 163 141 147 158 166 164 166 177 181 184 189
273 274 261 232 183 177 176 171 161 162 161 151 152 161 157 165 171 167 170 173 160 66
282 249 232 171 169 165 165 147 143 143 142 150 149 161 159 194 174 172 181 172 175 162